Terug naar catalogus

COMPASS G2

ActiefNavigatieMEO
NORAD 34779·PAYLOAD·🇨🇳 China

Gelanceerd Apr 14, 2009 vanaf Xichang Satellite Launch Center

Loading…

Volgende Passages (komende 24 uur)

TLE

VersSource: Space-Track

Epoch: Sep 14, 2026, 12:05 UTC

1 34779U 09018A   26257.50380830 -.00000161  00000-0  00000-0 0  9996
2 34779  11.6242  41.5012 0304809 287.3908  79.5447  0.94517318 63005

Volg COMPASS G2 in realtime met AllMySat

Download on the App Store